Regional Weather Roundup
Issued by NWS Charleston, SC

Current Version | Previous Version | Text Only | Print | Product List | Glossary Off
Versions: 1 2 3 4 5 6 7 8 9 10 11 12 13 14 15 16 17 18 19 20 21 22 23 24 25 26 27 28 29 30 31 32 33 34 35 36 37 38 39 40 41 42 43 44 45 46 47 48 49 50
000 ASUS42 KCHS 021728 RWRCHS REGIONAL WEATHER ROUNDUP NATIONAL WEATHER SERVICE CHARLESTON SC 100 PM EDT MON MAY 02 2016 NOTE: "FAIR" INDICATES FEW OR NO CLOUDS BELOW 12,000 FEET WITH NO SIGNIFICANT WEATHER AND/OR OBSTRUCTIONS TO VISIBILITY. NOT ALL STATIONS ARE QUALITY CONTROLLED. USE DATA WITH CAUTION... ESPECIALLY DEWPOINT OBSERVATIONS. SCZ027-030-031-034>040-042>050-021800- ...SOUTHEAST SOUTH CAROLINA... CITY SKY/WX TMP DP RH WIND PRES REMARKS N CHARLESTON MOSUNNY 87 66 49 SW13 30.03F WATERFRONT PRK N/A 79 70 74 SW12 30.03F MOUNT PLEASANT FAIR 84 70 61 S12G18 30.03F JOHNS ISLAND FAIR 82 72 69 S15 30.04F PINOPOLIS N/A 84 72 65 VRB3 29.97F MONCKS CORNER FAIR 81 63 54 S9 30.02F SUMMERVILLE LGT RAIN 81 70 69 S5 30.04F BEAUFORT MCAS PTSUNNY 86 72 62 VRB6 30.03F HX 92 BEAUFORT ARPT FAIR 81 70 69 S12G17 30.03S HILTON HEAD IS NOT AVBL WALTERBORO MOSUNNY 86 68 54 SW13 30.03F ALLENDALE FAIR 84 70 61 VRB7G14 30.01F ...SOUTHERN MIDLANDS AND PEE DEE... CITY SKY/WX TMP DP RH WIND PRES REMARKS GEORGETOWN CLOUDY 81 68 65 SW9 30.04F KINGSTREE FAIR 81 66 61 S5 30.02F ORANGEBURG SUNNY 83 68 60 S13 30.02F BARNWELL FAIR 86 73 66 S8 30.02F HX 93 AIKEN FAIR 84 64 51 S6 30.04F MANNING FAIR 81 68 65 SE7 30.02F COLUMBIA MOSUNNY 84 69 60 VRB7 30.00F SUMTER NOT AVBL FLORENCE MOSUNNY 82 67 60 S10 30.02F MYRTLE BEACH PTSUNNY 82 68 61 S13 30.06F N MYRTLE BEACH MOSUNNY 78 71 79 S12 30.04F $$ GAZ063-065-086>088-099>101-113>116-118-119-134>141-150-021800- ...SOUTHEAST GEORGIA... CITY SKY/WX TMP DP RH WIND PRES REMARKS SAVANNAH ARPT PTSUNNY 86 69 56 SW9G17 30.03F HX 90 HUNTER AAF NOT AVBL FORT STEWART NOT AVBL STATESBORO PTSUNNY 87 76 68 S7 30.02F HX 97 SYLVANIA PTSUNNY 84 75 74 SW6 30.03F HX 91 CLAXTON FAIR 83 74 74 CALM 30.02F ...CSRA...CENTRAL AND FAR SOUTHEAST GEORGIA... CITY SKY/WX TMP DP RH WIND PRES REMARKS THOMSON MOSUNNY 89 70 53 S6 30.04F HX 93 AUGUSTA-BUSH MOSUNNY 85 68 56 VRB7 29.99F AUGUSTA-DANIEL MOSUNNY 88 66 48 VRB7G17 30.01F HX 90 SWAINSBORO FAIR 86 64 48 SW7 30.03F VIDALIA MOSUNNY 84 70 61 S7 30.02F EASTMAN FAIR 86 67 53 SW6 30.05S HAZLEHURST PTSUNNY 87 70 57 SW6 30.01F HX 91 ALMA MOSUNNY 84 69 60 VRB7 30.02F WAYCROSS MOSUNNY 86 71 62 S6 30.01F HX 91 JESUP FAIR 88 72 58 SW9 30.02F HX 94 BAXLEY PTSUNNY 86 72 62 SW6 30.01F HX 92 BRUNSWICK MOSUNNY 88 73 62 SE7 30.03F HX 96 SAINT SIMONS SUNNY 82 73 74 SE8 30.04F $$ SCZ027-028-034-036>038-045-046-048>050-GAZ119-141-021800- ...LAKE AND SUPPLEMENTAL COASTAL OBSERVATIONS... STATION/POSITION TIME TEMP WIND PRES WAVE SWELL AIR SEA DIR/SP/G HT/PER HT/PER/DIR (UTC) (F) (DEG/KT/KT) (MB) (FT/S) (FT/S/D) WINYAH BAY 1645 81 210/ 10 1016.0F LAKE MURRAY 1600 84 CALM / 1 1016.3F ACE BASIN NERRS 1600 81 160/ 1 1018.0S FORT PULASKI 1700 79 74 190/ 7/ 14 1017.4F SAPELO ISLAND 1700 83 150/ 10 1017.0F $$ ANZ835-935-AMZ111-154-330-350-352-354-370-450-454-472-021800- ...C-MAN AND BUOY OBSERVATIONS... STATION/POSITION TIME TEMP WIND PRES WAVE SWELL AIR SEA DIR/SP/G HT/PER HT/PER/DIR (UTC) (F) (DEG/KT/KT) (MB) (FT/S) (FT/S/D) BUOY 41004 1650 75 74 230/ 4/ 6 1017.7F 3/ 9 3/ 9 BUOY 41008 NOT AVBL FOLLY BEACH CMAN 1700 77 200/ 9/ 11 1017.7F CAPERS NEARSHORE 1708 75 74 210/ 8/ 10 1017.3F FRIPP NEARSHORE 1708 75 74 200/ 10/ 12 1016.6F STATION/POSITION TIME TEMP WIND PRES WAVE SWELL AIR SEA DIR/SP/G HT/PER HT/PER/DIR (UTC) (F) (DEG/KT/KT) (MB) (FT/S) (FT/S/D) 5E ST. MARYS GA 1621 74 N/A 3/11 FRYING PAN BUOY 1700 73 73 190/ 10/ 14 1017.9F BUOY 41025 1650 74 74 220/ 16/ 19 1017.1F 4/11 3/ 70/11 CAPE LOOKOUT NC 1700 74 210/ 14/ 18 1017.1F BUOY 41002 1650 74 75 160/ 12/ 14 1020.5F 3/ 9 3/ 40/ 9 BUOY 41010 1620 78 79 150/ 12/ 14 1018.9F ST AUGUSTINE FL 1700 75 73 120/ 10/ 11 1018.0F $$

USA.gov is the U.S. government's official web portal to all federal, state and local government web resources and services.